[Date Prev][Date Next][Thread Prev][Thread Next] - [Date Index][Thread Index][Author Index]

2 Line ISS Keps 10-4



ISS 
1 25544U 98067A   04278.45719058  .00015151  00000-0  13476-3 0  8345
2 25544  51.6349 128.1143 0009694 183.9312 240.5993 15.68687969335485
----
Via the sarex mailing list at AMSAT.ORG courtesy of AMSAT-NA.
To unsubscribe, send "unsubscribe sarex" to Majordomo@amsat.org



AMSAT Top AMSAT Home